SCP
1 1 1 1 0 0 0 0 0 0 0 0 0 0 0 0 0 0 0 0 0 0 0 0 0 0 0 0 0 0 -0 -0 -0 -0 -0 -0 -0 -0 -0 -0 -0 -0 0 0 0 0 0 0 0
1 1 1 0 0 0 0 0 -0 0 0 0 0 0 0 0 0 0 0 0 0 0 0 0 0 0 0 0 0 0 0 -0 -0 -0 -0 -0 -0 -0 -0 -0 -0 -0 -0 0 0 0 0 0 0
0 0 0 0 0 0 0 0 0 0 0 0 0 0 0 0 0 0 0 0 0 0 0 0 0 0 0 0 0 0 0 0 0 -0 -0 -0 -0 -0 -0 -0 -0 -0 -0 -0 -0 0 0 0 0
0 0 0 0 0 0 0 0 0 0 0 0 0 0 0 0 0 0 0 0 0 0 0 0 0 0 0 0 0 0 0 0 0 0 0 -0 -0 -0 -0 -0 -0 -0 -0 -0 -0 -0 -0 -0 -0
0 0 0 0 0 0 0 0 0 0 0 0 0 0 0 0 0 0 0 0 0 0 0 0 0 0 0 0 0 0 0 0 0 0 0 0 0 0 0 0 0 -0 -0 -0 -0 -0 -0 -0 -0
0 0 0 0 0 0 0 0 0 0 0 0 0 0 0 0 0 0 0 0 0 0 0 0 0 0 0 0 0 0 0 0 0 0 0 0 0 0 0 0 0 0 0 0 -0 -0 -0 -0 -0
0 0 0 0 0 0 0 0 0 0 0 0 0 0 0 0 0 0 0 0 0 0 0 0 0 0 0 0 0 0 0 0 0 0 0 0 0 0 0 0 0 0 0 0 0 0 0 0 -0
0 0 0 0 0 0 0 0 0 0 0 0 0 0 0 0 0 0 0 0 0 0 0 0 0 0 0 0 0 0 0 0 0 0 0 0 0 0 0 0 0 0 0 0 0 0 0 0 0
0 0 0 0 0 0 0 0 0 0 0 0 0 0 0 0 0 0 0 0 0 0 0 0 0 0 0 0 0 0 0 0 0 0 0 0 0 0 0 0 0 0 0 0 0 0 0 0 0
0 0 0 0 0 0 0 0 0 0 0 0 0 0 0 0 0 0 0 0 0 0 0 0 0 0 0 1 1 1 1 1 1 0 0 0 0 0 0 0 0 0 0 0 0 0 0 0 0
0 0 0 0 0 1 0 0 0 0 0 0 0 0 0 0 0 0 0 0 0 0 0 0 0 0 0 1 1 1 1 1 1 1 0 0 0 0 0 0 0 0 0 0 0 0 0 0 0
0 0 0 0 1 1 0 0 0 0 0 0 0 0 0 0 0 0 0 0 0 0 0 0 0 0 0 1 1 1 1 1 1 1 1 0 0 0 0 0 0 0 0 0 0 0 0 0 0
0 0 0 0 0 0 0 0 0 0 0 0 0 0 0 0 0 0 0 0 0 0 0 0 0 0 0 0 0 1 1 1 1 1 1 1 0 0 0 0 0 0 0 0 0 0 0 0 0
0 0 0 0 0 0 0 0 0 0 0 0 0 0 0 0 0 0 0 0 0 0 0 0 0 0 0 0 0 0 0 1 1 1 1 1 1 0 0 0 0 0 0 0 0 0 0 0 0
0 0 0 0 0 0 0 0 0 0 0 0 0 0 0 0 0 0 0 0 0 0 0 0 0 0 0 0 0 0 0 1 1 1 1 1 1 1 0 0 0 0 0 0 0 0 0 0 0
0 0 0 0 0 0 0 0 0 0 0 0 0 0 0 0 0 0 0 0 0 0 0 0 0 0 0 0 0 0 0 0 1 1 1 1 1 1 1 1 0 0 0 0 0 0 0 0 0
0 0 0 0 0 0 0 0 0 0 0 0 0 0 0 0 0 0 0 0 0 0 0 0 0 0 0 0 0 0 0 0 1 1 1 1 1 1 1 1 1 1 1 0 0 0 0 0 0
0 0 0 0 0 0 0 0 0 0 0 0 0 0 0 0 0 0 0 0 0 0 0 0 0 0 0 0 0 0 0 0 1 1 1 1 1 1 1 1 1 1 1 1 0 0 0 0 0
0 0 0 0 0 0 0 0 0 0 0 0 0 0 0 0 0 0 0 0 0 0 0 0 0 0 0 0 0 0 0 1 1 1 1 1 1 1 1 1 1 1 1 1 1 0 0 0 0
0 0 0 0 0 0 0 0 0 0 0 0 0 0 0 0 0 0 0 0 0 0 0 0 0 0 0 0 0 0 0 0 1 1 1 1 1 1 1 1 1 1 1 1 1 1 0 0 0
-0 0 0 0 0 0 0 0 0 0 0 0 0 0 0 0 0 0 0 0 0 0 0 0 0 0 0 0 0 0 0 0 1 1 1 1 1 1 1 1 1 1 1 1 1 1 0 0 0
0 0 0 0 0 0 0 0 0 0 0 0 0 0 0 0 0 0 0 0 0 0 0 0 0 0 0 0 0 0 0 0 0 1 1 1 1 1 1 1 1 1 1 1 1 1 1 0 0
0 0 0 0 0 0 0 0 0 0 0 0 0 0 0 0 0 0 0 0 0 0 0 0 0 0 0 0 0 0 0 0 0 0 1 1 1 1 1 1 1 1 1 1 1 1 1 0 0
0 0 0 0 0 0 0 0 0 0 0 0 0 0 0 0 0 0 0 0 0 0 0 0 0 0 0 0 0 0 0 0 0 0 0 0 1 1 1 1 1 1 1 1 1 1 1 1 0
0 0 0 0 0 0 0 0 0 0 0 0 0 0 0 0 0 0 0 0 0 0 0 0 0 0 0 0 0 0 0 0 0 0 0 0 0 1 1 1 1 1 1 1 1 1 1 1 0
0 0 0 0 0 0 0 0 0 0 0 0 0 0 0 0 0 0 0 0 0 0 0 0 0 0 0 0 0 0 0 0 0 0 0 0 0 0 0 1 1 1 1 1 1 1 1 1 0
0 0 0 0 0 0 0 0 0 0 0 0 0 0 0 0 0 0 0 0 0 0 0 0 0 0 0 0 0 0 0 0 0 0 0 0 0 0 0 0 0 1 1 1 1 1 1 0 0
0 0 0 0 0 0 0 0 0 0 0 0 0 0 0 0 0 0 0 0 0 0 0 0 0 0 0 0 0 0 0 0 0 0 0 0 0 0 0 0 0 0 0 0 0 0 0 0 0
0 0 0 0 0 0 0 0 0 0 0 0 0 0 0 0 0 0 0 0 0 0 0 0 0 0 0 0 0 0 0 0 0 0 0 0 0 0 0 0 0 0 0 0 0 0 0 0 0
0 0 0 0 0 0 0 0 0 0 0 0 0 0 0 0 0 0 0 0 0 0 0 0 0 0 0 0 0 0 0 0 0 0 0 0 0 0 0 0 0 0 0 0 0 0 0 0 0
Wind_Speed
9 9 7 4 3 2 10 10 12 10 11 11 10 10 16 15 10 9 4 10 17 15 14 12 12 11 9 8 8 7 7 7 7 6 6 5 5 5 4 4 4 4 3 3 3 3 3 4 4
9 9 5 2 1 7 8 9 10 11 11 11 15 16 17 14 13 11 7 12 16 15 13 12 12 10 9 8 7 7 6 6 6 6 5 5 4 4 4 4 4 4 4 4 4 4 4 4 3
11 7 3 2 6 8 8 7 8 13 13 14 18 17 12 10 13 9 9 13 13 13 12 13 12 10 9 7 7 6 6 6 5 5 5 4 4 3 3 3 3 3 3 3 4 4 4 4 3
6 4 3 2 10 9 7 7 9 13 17 18 15 13 14 13 12 11 12 14 13 13 13 13 12 10 9 7 7 6 5 5 5 5 4 4 4 3 3 3 3 3 3 3 3 4 4 4 4
4 2 2 7 9 10 10 11 12 12 15 18 19 17 15 14 14 12 11 12 12 12 14 13 12 10 9 8 7 6 6 6 5 5 5 4 4 4 3 3 3 3 2 3 3 3 4 4 3
3 0 3 6 9 9 9 11 12 12 15 16 17 17 14 12 10 8 9 8 10 11 13 13 13 12 10 9 8 8 7 7 7 6 6 6 5 5 4 4 3 3 3 2 2 3 4 4 3
3 1 3 6 7 7 9 11 12 13 16 15 13 15 11 10 7 7 6 5 7 8 12 12 12 11 12 11 10 10 9 8 8 8 8 7 7 6 6 6 5 5 4 3 3 3 4 4 4
4 1 4 3 7 7 9 13 15 16 16 17 14 11 8 7 7 7 6 6 5 5 5 8 10 11 11 10 12 12 12 11 10 9 9 9 8 8 9 8 8 7 6 5 4 4 4 5 5
5 4 3 1 6 8 9 13 14 16 16 18 17 14 11 11 10 9 8 8 8 7 6 4 2 3 7 9 13 13 12 11 10 9 11 9 6 8 8 11 11 10 8 7 6 6 6 6 7
0 4 2 3 9 11 13 13 7 12 15 14 14 14 14 13 12 11 10 9 9 9 10 9 8 5 3 2 5 6 7 7 7 6 7 6 7 6 9 11 14 13 10 9 9 8 8 6 5
5 6 6 9 11 11 11 13 16 10 11 10 10 11 12 12 11 10 9 9 8 8 9 9 8 8 7 4 1 2 2 3 5 6 6 6 6 4 5 5 8 8 9 6 7 7 6 7 6
8 9 9 10 10 11 10 9 12 14 8 6 7 8 9 9 9 8 8 7 6 6 6 7 7 5 5 5 4 1 0 1 2 4 5 5 4 4 4 4 6 7 6 6 6 6 9 10 10
9 8 12 14 16 16 17 15 12 10 6 4 4 6 7 7 7 5 5 5 4 4 4 4 5 5 4 3 2 3 2 1 1 1 2 4 4 4 4 3 4 6 7 7 5 7 9 8 7
9 10 10 10 10 11 14 11 8 7 3 3 4 6 6 7 7 7 8 8 7 6 6 4 4 3 4 3 2 2 2 2 1 2 3 3 4 4 3 4 4 4 4 6 6 7 5 3 2
9 9 8 8 10 11 9 11 7 4 2 4 5 5 6 7 7 8 10 9 10 9 8 7 6 4 4 4 4 3 2 3 2 3 3 3 3 4 5 4 4 3 3 4 5 6 4 3 3
9 9 6 3 2 5 2 7 6 3 3 4 5 6 6 7 10 11 11 11 11 10 9 8 8 6 5 4 4 3 3 3 3 3 3 4 4 5 5 4 4 4 3 2 3 2 2 2 3
6 4 4 4 0 1 6 8 5 3 5 6 7 8 9 10 12 12 12 12 10 9 10 11 9 8 6 5 4 4 4 4 3 3 3 4 5 6 4 4 4 4 2 2 3 2 2 2 2
5 6 4 7 4 3 7 7 5 4 5 7 7 9 10 11 12 12 12 11 10 9 10 11 9 8 7 4 4 3 4 3 3 3 4 5 4 5 4 4 5 4 2 2 2 2 2 1 2
11 12 10 6 5 3 4 5 6 4 5 8 9 9 10 11 12 12 11 11 11 11 11 11 10 9 6 4 4 4 4 3 3 3 4 5 5 6 5 4 4 4 3 3 3 2 2 2 1
10 11 9 6 5 2 2 4 6 4 6 7 9 10 11 11 11 11 12 12 12 11 12 13 11 10 9 6 5 5 5 4 4 3 4 5 6 6 6 6 5 5 4 4 4 3 2 2 2
10 7 9 6 2 3 4 5 8 6 6 7 8 9 10 11 12 12 12 11 11 12 13 12 11 10 9 8 6 6 5 4 4 4 4 4 5 5 6 7 6 6 6 6 6 5 5 4 3
8 8 6 6 5 5 7 3 9 7 5 7 8 8 9 10 10 10 11 11 12 12 12 12 11 10 9 8 6 7 5 5 6 5 4 4 4 5 5 6 7 7 6 7 8 7 6 7 5
6 6 7 8 8 9 7 4 8 6 5 7 7 8 8 9 9 9 10 10 10 11 10 9 10 9 9 8 7 6 5 5 5 5 5 5 4 4 3 4 5 6 6 7 8 7 8 7 7
5 7 9 8 7 8 5 3 7 4 5 6 7 8 8 8 9 9 8 8 8 9 9 9 9 9 9 9 8 7 7 7 6 6 5 4 3 3 3 3 3 4 5 6 7 7 8 8 8
6 7 5 5 6 2 3 1 7 6 4 4 6 7 6 6 7 7 8 8 8 8 9 9 9 9 9 9 9 9 8 8 7 6 6 5 3 3 3 2 1 2 3 4 5 5 6 7 7
6 6 6 6 4 3 4 4 8 6 4 2 5 5 6 6 6 6 6 6 6 7 7 7 8 8 8 8 8 8 8 6 5 6 5 5 4 4 4 4 3 2 2 1 2 3 4 4 5
7 6 6 6 10 6 6 9 8 5 3 3 4 5 6 6 6 6 5 5 5 5 5 5 6 7 8 7 6 7 7 7 6 7 6 4 4 4 5 4 4 4 4 3 2 1 1 1 2
3 6 6 5 6 6 1 4 5 5 1 3 3 4 4 5 6 6 5 4 4 4 4 4 5 6 6 7 6 5 6 6 6 6 6 6 5 5 5 5 4 4 4 4 3 3 2 2 1
4 3 4 6 3 3 3 3 5 4 2 2 2 3 3 4 4 4 4 4 4 4 4 5 5 6 6 6 6 5 6 6 6 6 7 6 7 6 6 6 6 5 5 4 4 3 3 3 2
2 5 6 5 7 3 2 4 5 4 2 1 1 1 2 2 3 3 4 4 4 5 4 4 5 5 5 6 6 6 6 6 6 7 7 7 8 8 7 7 8 8 8 6 4 3 3 3 3
Wind_Direction
236 230 228 248 254 77 61 55 50 34 42 50 41 61 67 57 55 86 143 126 121 122 128 137 136 134 130 126 123 121 120 120 119 118 116 113 110 105 102 99 92 86 84 86 86 100 102 99 88
253 223 228 250 343 77 64 58 56 42 46 64 55 58 67 65 81 103 122 113 122 126 138 139 139 139 138 136 134 131 129 127 126 125 122 120 118 113 108 107 101 97 95 99 103 117 124 118 104
255 238 243 229 70 75 73 60 58 55 49 69 76 61 51 59 85 102 116 122 121 126 129 128 144 144 146 145 143 141 141 139 139 137 135 131 128 124 117 112 109 103 100 106 116 127 132 134 126
251 235 246 83 78 74 72 70 62 58 58 59 68 68 58 55 84 112 134 127 125 128 125 135 148 152 155 156 157 158 159 157 158 156 153 149 148 144 139 130 120 113 110 114 122 137 143 143 144
240 269 69 79 77 66 56 58 62 58 60 78 80 82 77 75 96 123 133 130 134 133 131 143 153 159 165 170 175 178 179 177 178 177 175 174 173 168 164 158 145 132 126 124 135 149 154 154 151
267 52 83 97 86 74 66 61 60 56 52 67 89 88 80 81 96 111 114 123 127 131 136 144 160 166 174 181 188 193 194 193 194 193 193 193 192 191 189 180 169 157 149 145 154 167 170 172 172
280 112 115 111 94 70 69 72 69 58 46 41 78 90 79 67 66 82 92 99 115 131 141 153 165 174 182 190 195 200 202 203 202 203 206 208 207 205 200 195 188 177 171 171 173 180 183 185 189
287 5 90 106 108 80 70 72 68 63 53 39 42 65 70 64 64 67 68 62 65 75 119 157 168 175 181 191 199 202 205 207 208 209 212 213 215 214 212 204 199 191 187 188 188 193 196 198 201
279 57 68 156 120 96 79 80 77 67 63 56 52 54 47 46 50 50 48 41 38 31 22 39 101 166 187 188 192 196 204 208 208 211 214 213 217 214 212 216 193 193 195 197 200 205 206 208 211
1 84 118 83 96 92 63 44 55 70 51 42 38 39 38 39 44 46 42 33 27 21 13 14 9 11 348 264 170 185 196 196 204 209 204 209 228 224 213 205 186 192 197 202 209 214 216 222 213
52 88 85 79 97 109 92 56 33 81 54 35 29 29 35 37 36 36 35 30 20 18 15 3 3 2 357 352 14 174 180 184 202 213 202 212 237 250 215 179 181 191 197 206 208 213 223 221 217
67 53 69 64 65 75 77 79 62 58 63 48 46 37 41 39 35 29 23 22 12 14 8 1 356 349 348 349 350 341 160 182 209 212 210 203 217 242 245 202 186 188 193 204 193 208 216 223 215
105 91 83 85 83 85 86 85 81 68 67 56 54 49 43 43 34 30 22 15 7 7 4 1 347 343 337 336 327 326 327 239 216 227 226 205 202 223 246 248 206 197 193 196 201 212 225 218 209
126 129 125 115 105 97 93 82 73 59 48 57 52 49 32 30 25 17 16 5 356 356 351 353 339 332 326 323 309 288 288 291 261 216 223 228 205 209 221 254 255 235 211 188 194 217 239 208 236
137 147 145 140 136 141 121 78 67 38 12 34 17 46 29 19 15 19 10 360 353 349 342 338 322 324 322 319 314 303 269 249 245 239 237 224 213 212 206 221 245 253 247 219 207 220 223 184 201
190 190 159 114 156 167 232 88 71 16 8 27 5 21 23 15 15 18 7 358 352 345 338 327 321 324 314 304 293 283 273 253 233 231 235 241 232 222 202 202 224 234 241 253 229 234 222 184 185
221 251 152 156 348 116 84 95 85 42 9 17 15 9 13 10 13 15 4 356 349 342 335 327 326 320 308 297 282 270 268 261 241 226 221 229 239 240 217 204 210 230 228 232 244 215 216 201 196
314 285 239 158 111 84 99 117 115 61 24 14 14 16 14 10 9 10 0 354 350 345 338 328 322 312 311 308 298 286 274 266 256 242 229 219 225 242 240 217 213 210 215 239 264 242 217 206 208
316 304 303 105 104 57 100 120 109 73 42 25 14 16 15 9 6 7 360 0 355 350 341 330 327 326 325 321 310 304 298 292 276 258 249 231 222 226 231 226 210 203 201 208 225 247 247 246 257
298 296 304 114 96 10 184 161 120 92 64 43 20 13 14 5 1 2 1 3 355 350 343 338 339 336 334 326 317 304 297 288 273 267 263 247 233 224 228 218 210 196 193 201 208 208 209 251 252
307 335 343 349 79 233 238 191 146 131 81 55 35 20 14 4 1 359 0 1 354 352 346 341 339 334 333 334 330 320 315 304 293 285 272 260 250 230 224 221 212 201 194 199 200 199 197 209 227
331 31 338 307 281 244 201 236 148 138 88 50 33 22 14 9 5 4 4 360 356 353 347 343 345 343 342 337 328 322 312 305 301 303 295 285 267 255 231 223 214 208 201 198 201 199 203 199 208
340 334 296 277 267 272 228 235 136 132 58 33 27 20 20 13 9 11 10 2 359 356 352 350 354 353 350 345 341 332 322 309 304 307 306 305 289 276 259 237 221 212 207 204 202 198 202 207 205
294 272 252 247 256 257 231 235 115 77 39 15 21 25 21 13 11 14 11 2 -0 360 357 357 1 2 357 354 353 352 343 339 339 337 329 322 309 300 297 265 239 225 216 209 205 206 204 210 211
252 284 272 223 212 212 103 136 92 90 57 18 23 25 17 17 11 9 7 1 359 2 360 360 4 4 1 0 3 2 358 352 352 347 337 332 327 329 333 322 278 243 228 219 207 206 212 213 210
314 301 315 317 326 133 180 100 109 106 100 46 48 28 11 18 13 9 7 359 356 358 356 360 2 4 4 5 5 6 7 1 355 352 347 349 349 347 354 4 15 26 18 287 210 212 218 215 216
316 330 340 302 290 284 130 118 133 141 132 84 55 28 18 14 13 8 6 357 352 350 355 360 3 8 5 4 5 7 7 3 2 1 2 2 356 356 8 15 26 34 37 39 50 76 207 201 218
309 322 309 291 332 334 36 112 124 140 93 66 64 36 20 11 6 0 355 353 347 348 357 5 14 16 3 1 3 3 358 358 1 2 0 359 358 4 12 14 25 38 43 44 45 54 45 63 79
325 282 302 290 270 314 337 65 81 93 81 35 51 42 15 5 354 345 346 351 355 357 12 13 15 16 5 358 355 3 1 357 11 7 2 6 5 10 26 21 25 34 40 45 48 49 53 62 59
335 343 331 323 341 327 288 106 97 103 112 137 57 16 1 339 333 333 348 350 3 360 9 18 18 13 6 1 360 11 12 9 17 15 10 16 14 13 23 28 29 31 29 23 26 34 50 60 63